COSMOS 249 DEB, 3912

Orbit data source: Space-Track

COSMOS 249 DEB, 3912 is space debris in LEO originally from a launch on Sun, 20 Oct 1968 UTC launched from the Tyuratam Missile And Space Complex (TTMTR). Debris objects in space refer to the collection of defunct objects orbiting the Earth. Examples of debris include non-operational satellites, rocket bodies, and fragments generated from explosions, collisions, or faulty payload assembly.

Loading next visibility...
Identifier
3912, 1968-091BQ
Orbit
LEO
Country
Flag of CISCIS
Related business
Manufacturer
Unknown
Mission
Spacecraft
Bus & Motor
Unknown
Mass
Unknown
Launch date (UTC)
1968-10-20 (58 years ago)
Launch vehicle
Unknown
Launch site
Tyuratam Missile And Space Complex (TTMTR)
Object type
Payload
Rocket body
Debris
Shape & HBR
Unknown shape, 0.1 m
Radar Cross Section
Medium (>0.1 m² and <1 m²)

Expand to show TLE details & history
Last TLE update: 12 hours ago

TLE from 12 hours ago
0 COSMOS 249 DEB
1 03912U 68091BQ  26236.06609914  .00001093  00000-0  14886-2 0  9995
2 03912  62.2448 112.6202 0795664  86.3466 282.8060 12.74390323653977
Epoch: 2026-08-24T01:35Z
TLE epoch observation values (Epoch: 2026-08-24T01:35:10.965Z)
Latitude
Longitude
116.47137°
Altitude
1,276.846 km
Speed
7.259 km/s
True Right ascension
07h 30m 28s
True Declination
0° 00' 00"
Sunlit
Object was in daylight at epoch
Visualization orbit readout
Latitude
Unknown
Longitude
Unknown
Altitude
Unknown
Speed
Unknown
Apparent Right ascension
Unknown
Apparent Declination
Unknown
Sunlit
N/A
Visualization observer readout
Local Sidereal Time
04:58:39
Azimuth
Unknown
Elevation
Unknown
Doppler factor
Unknown
Orbital elements
Apogee altitude
1,979.052 km
Perigee altitude
747.166 km
Semi-major axis
7,741.246 km
Eccentricity
0.07957
Inclination
62.2448°
RAAN
112.6202°
Arg. of periapsis
86.3466°
True anomaly
273.75284°
Mean anomaly
282.806°
Eccentric anomaly
278.29487°
Mean motion
3.1866 °/min
Orbital period
112.97 mins
BSTAR
0.0014886
Loading maneuver chart data...
Computing Atmospheric mass density...
Loading historical data...
Loading historical data...
Loading historical data...
Loading historical data...
Loading historical data...
Loading historical data...
Loading historical data...

Documentation

Showing up to 5 results
|